Find Starlink 34764

NORAD ID: 65098 Int'l Des: 2025-167 Owner: SPXS Country: US Constellation: starlink operational
LEOCIRCULAR

現在のビュー

3D地球を読み込み中...

Starlink 34764について

説明を読み込み中...

次回通過

Passes for default location (London). Set your location on the main map for personalized predictions.

高度履歴

Loading altitude history...

軌道要素

1 65098U 25167W 26150.01015009 .00045560 00000-0 13516-2 0 9997
2 65098 53.1606 7.9931 0001038 74.6280 285.4837 15.34395107 45946
Epoch: May 30, 2026 • Age: 20 hours

現在のステータス

高度 468.1 km
速度 7.63 km/s
衛星直下点 -19.64°S, 153.4°E
打ち上げ日 Aug 4, 2025
運用期間 0.8 years
タイプ internet

技術仕様

分類 Payload
質量 575.00 kg
乾燥質量 530.00 kg
総質量 575.00 kg
長さ 0.30 m
直径 4.10 m
スパン 29.00 m
形状 Box + pan
製造者 SPXS
バスタイプ Starlink V2MO
フェーズステータス In Orbit
所有者/国 SPXS/US

Most Searched